User: anonymous   Login
Location: Newark
(52.4787°S, 179.0532°W)
Time: 20:45:04
(UTC+00:00)
Language:

ZACube-1 - Orbit

View from above orbital plane
View from above orbital plane
View from above satellite
View from above satellite

Ground track
Ground track

The orbit data is extracted from the following two-line orbital elements,

1 39417U 13066B   19340.48841776  .00000162  00000-0  26739-4 0  9992
2 39417  97.5614 344.3829 0058581 192.5860 167.3894 14.81187996326327
Epoch (UTC): 06 December 2019 11:43:19
Eccentricity: 0.0058581
inclination: 97.5614°
perigee height: 584 km
apogee height: 666 km
right ascension of ascending node: 344.3829°
argument of perigee: 192.5860°
revolutions per day: 14.81187996
mean anomaly at epoch: 167.3894°
orbit number at epoch: 32632

The dashed part of the orbit path shows where the satellite is in the earth's shadow,  

DLR